Location: Casteau
(50.5142°N, 4.0161°E)
Time: 05:16:00
(UTC+00:00)

Vanguard 1 Rocket - Pass Details

Date: 27 July 2021
Orbit: 650 x 4226 km, 34.3° (Epoch: 21 September)

Event Time Altitude Azimuth Distance (km) Brightness Sun altitude
Rises 15:22:06 0° 259° (WSW) 4,745 12.0 37.9°
Reaches altitude 10° 15:27:34 10° 236° (SW) 3,067 11.3 37.1°
Maximum altitude 15:30:46 13° 208° (SSW) 2,450 10.3 36.6°
Drops below altitude 10° 15:33:25 10° 179° (S) 2,432 9.9 36.2°
Sets 15:36:47 0° 151° (SSE) 3,096 10.0 35.7°
